Regional Weather Roundup
Issued by NWS Kansas City/Pleasant Hill, MO

Home | Current Version | Previous Version | Text Only | Print | Product List | Glossary On
Versions: 1 2 3 4 5 6 7 8 9 10 11 12 13 14 15 16 17 18 19 20 21 22 23 24 25 26 27 28 29 30 31 32 33 34 35 36 37 38 39 40 41 42 43 44 45 46 47 48 49 50
000
ASUS43 KEAX 270410
RWREAX

WEATHER ROUNDUP FOR EASTERN KANSAS AND NORTHWEST MISSOURI
NATIONAL WEATHER SERVICE KANSAS CITY/PLEASANT HILL MO
1000 PM CST THU FEB 26 2015

KSZ040-057-103>105-MOZ028-029-037-043-270500-
...KANSAS CITY METROPOLITAN AREA...

CITY           SKY/WX    TMP DP  RH WIND       PRES   REMARKS
K.C. INTL      CLEAR      7  -2  66 N9        30.57R WCI  -7
K.C. DOWNTOWN  CLEAR     11  -2  56 N14       30.59R WCI  -5
LEES SUMMIT    CLEAR     10  -2  58 N16G22    30.55R WCI  -7
OLATHE - IXD   CLEAR      9  -2  61 N15       30.56R WCI  -8
OLATHE - OJC   CLEAR     11  -3  53 N15       30.53R WCI  -5
LAWRENCE       CLEAR      9  -1  64 N10       30.59R WCI  -5

$$

MOZ001>008-011>017-020>025-030>033-038>040-044>046-053-054-270500-
...NORTHERN AND CENTRAL MISSOURI...

CITY           SKY/WX    TMP DP  RH WIND       PRES   REMARKS
ST. JOSEPH     CLEAR      4  -3  73 N5        30.62R WCI  -5
MOSBY            N/A     10   0  61 N8        30.59R WCI  -1
WARRENSBURG    CLEAR     12   3  67 N7        30.56R WCI   2
WHITEMAN AFB   NOT AVBL
CLINTON        CLEAR     14   5  67 N10       30.55R WCI   1
SEDALIA        CLEAR     11   1  64 N9        30.55R WCI  -2
WARSAW         NOT AVBL
MARSHALL       CLEAR     14   3  62 N10       30.55R WCI   1
CHILLICOTHE      N/A      7  -3  64 NW6       30.60R WCI  -3
MOBERLY        CLEAR      9  -4  56 N6        30.54R WCI  -1
KIRKSVILLE     CLEAR      2  -5  72 N6        30.54R WCI  -9

$$

MOZ041-047>049-056>058-063>065-088>090-097-270500-
...EASTERN AND SOUTHERN MISSOURI...

CITY           SKY/WX    TMP DP  RH WIND       PRES   REMARKS
ST. LOUIS INTL CLEAR     12   0  58 N6        30.51R WCI   3
SPIRIT OF STL  CLEAR     12  -1  56 N14       30.52R WCI  -3
COLUMBIA       CLEAR     10   0  63 N10       30.52R WCI  -4
JEFFERSON CITY CLEAR     13   0  56 N7        30.56R WCI   3
MEXICO         CLEAR     10   3  72 N9        30.53R WCI  -2
HANNIBAL       CLEAR      5  -8  56 N8        30.54R WCI  -8
ROLLA          CLEAR     11   0  61 N10       30.46R WCI  -3
OSAGE BEACH    CLEAR     12   1  62 N6        30.51R WCI   3
SPRINGFIELD    CLEAR     15   3  59 N13       30.45R WCI   1
BRANSON        CLEAR     18   5  57 N9        30.45R WCI   6
NEVADA         CLEAR     14   3  62 N13       30.55R WCI   0
JOPLIN         CLEAR     17   4  56 N7        30.50R WCI   8
WEST PLAINS    CLEAR     16   6  65 N8        30.42R WCI   5

$$

IAZ060-094-KSZ022-034>040-054-083-096-NEZ052-066-093-270500-
...KANSAS...SOUTHEAST NEBRASKA AND IOWA...

CITY           SKY/WX    TMP DP  RH WIND       PRES   REMARKS
TOPEKA         CLEAR     10   0  63 N10       30.60R WCI  -4
MANHATTAN      CLEAR      9   1  70 NE9       30.59R WCI  -4
EMPORIA        CLEAR     11   1  64 N13       30.53R WCI  -4
CHANUTE        CLEAR     16   3  56 N9        30.53R WCI   4
WICHITA        MOCLDY    17  -1  45 NE12      30.52R WCI   4
OMAHA          CLEAR      3  -2  79 NW5       30.59R WCI  -6
LINCOLN        CLEAR      4  -2  76 N3        30.58R
FALLS CITY     CLEAR      5  -4  66 CALM      30.59R
LAMONI         CLEAR      1  -6  72 NW10      30.54R WCI -15
DES MOINES     CLEAR      2  -6  69 NW5       30.55R WCI  -8

$$



USA.gov is the U.S. government's official web portal to all federal, state and local government web resources and services.